STARLINK-32171, 60332

Orbit data source: Space-Track

STARLINK-32171, 60332 is a payload satellite owned by SpaceX/Seattle (US) in LEO that was launched on Fri, 02 Aug 2024 UTC via an FALCON 9 launch vehicle from the Air Force Eastern Test Range (AFETR). Payloads include a variety of satellites, spacecraft, and rockets equipped with specific instruments for various scientific and technological missions. These include communications satellites like Starlink; space stations such as the ISS; scientific satellites like the Hubble; Earth observation satellites from companies like Planet Labs, Umbra, and HawkEye 360; GPS; miniature CubeSats for education and research; and military/defense satellites.

Loading next visibility...
STARLINK-32171 details
Identifier
60332, 2024-136D
Orbit
LEO
Last TLE update21 hours ago
Origin
Flag of USSpaceX/Seattle (US)
ManufacturerSpaceX/Seattle
MissionOperational spacecraft
Bus & MotorSTARLINK V2M, Unknown motor
Mass730 kg wet, ~700 kg dry
Launch date (UTC)
2024-08-02 (5 months ago)
Launch vehicle
FALCON 9
Launch site
Air Force Eastern Test Range (AFETR)
Object type
Payload
Rocket body
Debris
Shape & HBRUnknown
Radar Cross SectionLarge (>1 m²)

Expand to show TLE details & history

TLE from 21 hours ago
0 STARLINK-32171
1 60332U 24136D   24356.34565336  .00001983  00000-0  79110-4 0  9998
2 60332  53.1630 335.1670 0001461  81.7865 278.3301 15.30184104 21785
Epoch: 2024-12-21T08:17Z
Definitive object data (Epoch: 2024-12-21T08:17:44.45Z)
Latitude-0.00005°
Longitude120.33362°
Altitude476.018 km
Speed7.629 km/s
True Right ascension22h 20m 40s
True Declination0° 00' 00"
Sunlit
Object was in daylight at TLE epoch
Visualization TLE readout
Latitude31.95215°
Longitude-91.41477°
Altitude476.69 km
Speed7.632 km/s
Apparent Right ascension11h 42m 13s
Apparent Declination-5° 01' 06"
Sunlit
Object is in full shadow
Visualization observer readout
Local Sidereal Time04:21:13
Azimuth80.633° E
Elevation-18.699°
Doppler factor1
Orbital elements
Apogee altitude476.52 km
Perigee altitude474.517 km
Semi-major axis6,853.655 km
Eccentricity0.0001461
Inclination53.163°
RAAN335.167°
Arg. of periapsis81.7865°
True anomaly278.31353°
Mean anomaly278.3301°
Eccentric anomaly278.32182°
Mean motion3.82525 °/min
BSTAR0.00007911
Orbital period94.11 mins
Loading maneuver chart data...
Loading historical data...
Loading historical data...
Loading historical data...
Loading historical data...
Loading historical data...
Loading historical data...
Loading historical data...

STARLINK-32171 Visibility forecast

Observer location: undefined°, undefined

Span
Click to sort rows by Start time (UTC) header in descending order
Start Az.
Max El. time (UTC)
Max El. Az.
Max El.
End time (UTC)
End Az.
4 mins2024-12-22 06:41:39.191Z350.134° N2024-12-22 06:43:39.191Z30.567° NE17.148°2024-12-22 06:45:39.191Z65.061° ENE
5 mins2024-12-22 08:19:39.191Z310.652° NW2024-12-22 08:21:39.191Z107.616° ESE44.972°2024-12-22 08:24:39.191Z130.575° SE
6 mins2024-12-23 01:14:39.191Z230.2° WSW2024-12-23 01:16:39.191Z235.105° WSW43.093°2024-12-23 01:20:39.191Z49.679° ENE
|